Weather History for KOXC - January, 2013

Change the Weather History Date:

Tuesday, January 1, 2013

  Actual Average Record
Temperature  
Mean Temperature 27 °F -  
Max Temperature 35 °F 34 °F 55 °F (2011)
Min Temperature 19 °F 21 °F 3 °F (1997)
Degree Days  
Heating Degree Days 38    
Moisture  
Dew Point 15 °F    
Average Humidity 54    
Maximum Humidity 60    
Minimum Humidity 46    
Precipitation  
Precipitation 0.00 in - - ()
Sea Level Pressure  
Sea Level Pressure 29.86 in    
Wind  
Wind Speed 8 mph (NW)    
Max Wind Speed 15 mph    
Max Gust Speed 22 mph    
Visibility 10 miles    
Events      
Averages and records for this station are not official NWS values.
T = Trace of Precipitation, MM = Missing Value Source: NWS Daily Summary

Daily Weather History Graph

Daily Weather History Graph

Search for Another Location

Airport or City:

Trip Planner

Search our weather history database for the weather conditions in past years. The results will help you decide how hot, cold, wet, or windy it might be!

Date:

Astronomy

Jan. 01, 2013 Rise Set
Actual Time 7:18 AM EST 4:33 PM EST
Civil Twilight 6:47 AM EST 5:05 PM EST
Nautical Twilight 6:12 AM EST 5:39 PM EST
Astronomical Twilight 5:39 AM EST 6:13 PM EST
Moon 9:05 PM EST (1/1) 9:26 AM EST (1/1)
Length of Visible Light 10h 17m
Length of Day
9h 14m
Waning Gibbous, 83% of the Moon is Illuminated
Jan 1
Waning Gibbous
Jan 4
Last Quarter
Jan 11
New
Jan 18
First Quarter
Jan 26
Full

Hourly Weather History & Observations

Time (EST) Temp. Windchill Dew Point Humidity Pressure Visibility Wind Dir Wind Speed Gust Speed Precip Events Conditions
12:15 AM 33.8 °F 28.6 °F 19.4 °F 56% 29.82 in 10.0 mi West 5.8 mph - N/A   Overcast
12:35 AM 33.8 °F 26.4 °F 19.4 °F 56% 29.82 in 10.0 mi West 9.2 mph - N/A   Overcast
12:55 AM 33.8 °F 26.4 °F 19.4 °F 56% 29.81 in 10.0 mi West 9.2 mph 18.4 mph N/A   Overcast
1:15 AM 33.8 °F 27.7 °F 19.4 °F 56% 29.81 in 10.0 mi West 6.9 mph - N/A   Overcast
2:15 AM 35.6 °F 27.5 °F 21.2 °F 56% 29.82 in 10.0 mi West 11.5 mph 20.7 mph N/A   Overcast
2:35 AM 35.6 °F 28.0 °F 21.2 °F 56% 29.82 in 10.0 mi West 10.4 mph 18.4 mph N/A   Overcast
2:55 AM 33.8 °F 24.8 °F 21.2 °F 60% 29.81 in 10.0 mi West 12.7 mph 20.7 mph N/A   Scattered Clouds
3:15 AM 35.6 °F 28.0 °F 21.2 °F 56% 29.80 in 10.0 mi West 10.4 mph 21.9 mph N/A   Partly Cloudy
3:35 AM 35.6 °F 28.0 °F 21.2 °F 56% 29.81 in 10.0 mi West 10.4 mph 20.7 mph N/A   Mostly Cloudy
4:55 AM 35.6 °F 31.7 °F 23.0 °F 60% 29.82 in 10.0 mi West 4.6 mph 16.1 mph N/A   Overcast
5:15 AM 35.6 °F 28.0 °F 23.0 °F 60% 29.81 in 10.0 mi West 10.4 mph 17.3 mph N/A   Overcast
5:35 AM 35.6 °F 29.2 °F 23.0 °F 60% 29.81 in 10.0 mi West 8.1 mph 17.3 mph N/A   Overcast
5:45 AM 35.6 °F 29.9 °F 23.0 °F 60% 29.82 in 10.0 mi WNW 6.9 mph - N/A   Overcast
6:45 AM 35.6 °F 29.9 °F 23.0 °F 60% 29.82 in 10.0 mi WNW 6.9 mph - N/A   Overcast
8:45 AM 35.6 °F 28.6 °F 21.2 °F 56% 29.84 in 10.0 mi West 9.2 mph - N/A   Mostly Cloudy
9:45 AM 35.6 °F 28.6 °F 21.2 °F 56% 29.84 in 10.0 mi WNW 9.2 mph - N/A   Mostly Cloudy
11:45 AM 35.6 °F 28.6 °F 17.6 °F 48% 29.83 in 10.0 mi NW 9.2 mph 20.7 mph N/A   Mostly Cloudy
2:45 PM 33.8 °F 25.3 °F 15.8 °F 48% 29.81 in 10.0 mi North 11.5 mph 18.4 mph N/A   Mostly Cloudy
3:45 PM 30.2 °F 19.3 °F 15.8 °F 55% 29.83 in 10.0 mi North 15.0 mph - N/A   Scattered Clouds
4:45 PM 28.4 °F 19.1 °F 12.2 °F 51% 29.87 in 10.0 mi NNW 10.4 mph - N/A   Partly Cloudy
5:45 PM 26.6 °F 18.2 °F 12.2 °F 55% 29.88 in 10.0 mi NNW 8.1 mph - N/A   Clear
6:45 PM 26.6 °F 17.5 °F 10.4 °F 51% 29.90 in 10.0 mi NNW 9.2 mph - N/A   Clear
7:45 PM 24.8 °F 15.3 °F 8.6 °F 50% 29.91 in 10.0 mi NNW 9.2 mph 19.6 mph N/A   Clear
8:54 PM 23.0 °F 11.7 °F 6.8 °F 50% 29.93 in 10.0 mi North 11.5 mph 16.1 mph N/A   Clear
9:15 PM 23.0 °F 13.1 °F 6.8 °F 50% 29.93 in 10.0 mi NNW 9.2 mph - N/A   Clear
9:35 PM 21.2 °F 11.7 °F 5.0 °F 50% 29.94 in 10.0 mi NNW 8.1 mph - N/A   Clear
9:55 PM 21.2 °F 14.9 °F 5.0 °F 50% 29.94 in 10.0 mi NNW 4.6 mph - N/A   Clear
10:35 PM 21.2 °F 13.6 °F 3.2 °F 46% 29.95 in 10.0 mi NW 5.8 mph - N/A   Clear
10:55 PM 19.4 °F 10.4 °F 3.2 °F 49% 29.96 in 10.0 mi NNW 6.9 mph - N/A   Clear
11:15 PM 19.4 °F 10.4 °F 3.2 °F 49% 29.96 in 10.0 mi NNW 6.9 mph - N/A   Clear
11:35 PM 19.4 °F 11.5 °F 3.2 °F 49% 29.96 in 10.0 mi NW 5.8 mph - N/A   Clear
11:55 PM 19.4 °F - 1.4 °F 46% 29.96 in 10.0 mi Calm Calm - N/A   Clear